Lefor, ND

4:19 AM MDT on August 30, 2016 (GMT -0600)
Dickinson Municipal

Weather History for KDIK - August, 2013

Change the Weather History Date:

Saturday, August 10, 2013

  Actual Average Record
Temperature  
Mean Temperature 64 °F 70 °F  
Max Temperature 78 °F 85 °F 104 °F (1936)
Min Temperature 49 °F 55 °F 36 °F (1917)
Degree Days  
Heating Degree Days 1 1  
Month to date heating degree days 8 10  
Since 1 June heating degree days 164 181  
Since 1 July heating degree days 40 44  
Cooling Degree Days 0 6  
Month to date cooling degree days 4 60  
Year to date cooling degree days 147 289  
Since 1 June cooling degree days 138 279  
Growing Degree Days 12 (Base 50)    
Moisture  
Dew Point 54 °F    
Average Humidity 74    
Maximum Humidity 93    
Minimum Humidity 54    
Precipitation  
Precipitation 0.53 in 0.05 in 2.54 in (2005)
Month to date precipitation 1.67 0.51  
Year to date precipitation 13.17 11.26  
Sea Level Pressure  
Sea Level Pressure 30.11 in    
Wind  
Wind Speed 10 mph (ESE)    
Max Wind Speed 29 mph    
Max Gust Speed 38 mph    
Visibility 9 miles    
Events Rain , Thunderstorm    
T = Trace of Precipitation, MM = Missing Value Source: NWS Daily Summary

Daily Weather History Graph

Daily Weather History Graph

Search for Another Location

Airport or City:

Trip Planner

Search our weather history database for the weather conditions in past years. The results will help you decide how hot, cold, wet, or windy it might be!

Date:

Astronomy

Aug. 10, 2013 Rise Set
Actual Time 5:42 AM MDT 8:09 PM MDT
Civil Twilight 5:08 AM MDT 8:43 PM MDT
Nautical Twilight 4:26 AM MDT 9:25 PM MDT
Astronomical Twilight 3:37 AM MDT 10:13 PM MDT
Moon 9:50 AM MDT (8/10) 9:31 PM MDT (8/10)
Length of Visible Light 15h 34m
Length of Day
14h 26m
Waxing Crescent, 14% of the Moon is Illuminated
Aug 10
Waxing Crescent
Aug 14
First Quarter
Aug 20
Full
Aug 28
Last Quarter
Sep 5
New

Hourly Weather History & Observations

Time (MDT) Temp. Dew Point Humidity Pressure Visibility Wind Dir Wind Speed Gust Speed Precip Events Conditions
12:56 AM 52.0 °F 48.9 °F 89% 30.18 in 10.0 mi East 6.9 mph - N/A   Clear
1:56 AM 51.1 °F 48.0 °F 89% 30.18 in 10.0 mi East 5.8 mph - N/A   Clear
2:56 AM 53.1 °F 48.9 °F 86% 30.17 in 10.0 mi ESE 4.6 mph - N/A   Mostly Cloudy
3:56 AM 50.0 °F 46.9 °F 89% 30.16 in 10.0 mi East 5.8 mph - N/A   Scattered Clouds
4:56 AM 50.0 °F 46.9 °F 89% 30.15 in 10.0 mi ESE 8.1 mph - N/A   Partly Cloudy
5:56 AM 48.9 °F 46.9 °F 93% 30.16 in 10.0 mi ESE 5.8 mph - N/A   Clear
6:56 AM 54.0 °F 50.0 °F 86% 30.16 in 10.0 mi SSE 6.9 mph - N/A   Partly Cloudy
7:56 AM 57.9 °F 50.0 °F 75% 30.17 in 10.0 mi SSE 9.2 mph - N/A   Partly Cloudy
8:56 AM 63.0 °F 51.1 °F 65% 30.15 in 10.0 mi SSE 9.2 mph - N/A   Clear
9:56 AM 66.9 °F 52.0 °F 59% 30.14 in 10.0 mi SE 13.8 mph - N/A   Clear
10:56 AM 69.1 °F 53.1 °F 57% 30.13 in 10.0 mi SSE 15.0 mph 20.7 mph N/A   Clear
11:56 AM 73.0 °F 57.0 °F 57% 30.11 in 10.0 mi SE 12.7 mph 20.7 mph N/A   Clear
12:56 PM 73.0 °F 57.9 °F 59% 30.09 in 10.0 mi SSE 12.7 mph - N/A   Scattered Clouds
1:56 PM 75.9 °F 59.0 °F 56% 30.07 in 10.0 mi SSE 15.0 mph - N/A   Scattered Clouds
2:56 PM 75.9 °F 59.0 °F 56% 30.05 in 10.0 mi SSE 15.0 mph - N/A   Scattered Clouds
3:56 PM 75.0 °F 57.9 °F 55% 30.03 in 10.0 mi South 13.8 mph 20.7 mph N/A   Scattered Clouds
4:56 PM 75.0 °F 57.9 °F 55% 30.01 in 10.0 mi South 15.0 mph - N/A   Clear
5:56 PM 71.1 °F 57.0 °F 61% 30.04 in 10.0 mi South 9.2 mph - N/A   Overcast
6:37 PM 60.8 °F 57.2 °F 88% 30.12 in 5.0 mi North 24.2 mph 32.2 mph 0.05 in Rain , Thunderstorm Light Thunderstorms and Rain
6:39 PM 60.8 °F 57.2 °F 88% 30.12 in 2.5 mi North 28.8 mph 38.0 mph 0.11 in Rain , Thunderstorm Heavy Thunderstorms and Rain
6:47 PM 59.0 °F 55.4 °F 88% 30.11 in 1.0 mi NE 20.7 mph 38.0 mph 0.42 in Rain , Thunderstorm Heavy Thunderstorms and Rain
6:54 PM 55.4 °F 51.8 °F 88% 30.10 in 1.8 mi ENE 16.1 mph 28.8 mph 0.49 in Rain , Thunderstorm Heavy Thunderstorms and Rain
6:56 PM 55.9 °F 52.0 °F 87% 30.10 in 2.5 mi ENE 16.1 mph 28.8 mph 0.50 in Rain , Thunderstorm Heavy Thunderstorms and Rain
7:03 PM 57.2 °F 53.6 °F 88% 30.08 in 4.0 mi ENE 12.7 mph - 0.02 in Rain , Thunderstorm Thunderstorms and Rain
7:23 PM 60.8 °F 57.2 °F 88% 30.06 in 10.0 mi East 12.7 mph - 0.03 in Rain Light Rain
7:56 PM 60.1 °F 57.0 °F 90% 30.04 in 10.0 mi ESE 11.5 mph - 0.03 in   Scattered Clouds
8:56 PM 59.0 °F 55.9 °F 90% 30.09 in 10.0 mi SE 9.2 mph - N/A   Clear
9:56 PM 57.0 °F 55.0 °F 93% 30.07 in 10.0 mi South 6.9 mph - N/A   Clear
10:56 PM 55.0 °F 54.0 °F 96% 30.07 in 10.0 mi SSW 3.5 mph - N/A   Clear
11:41 PM 55.4 °F 53.6 °F 94% 30.11 in 10.0 mi NNE 5.8 mph - N/A   Scattered Clouds
11:56 PM 57.0 °F 54.0 °F 89% 30.08 in 10.0 mi NNE 8.1 mph - N/A   Mostly Cloudy